Information on these data can be found in provided Readme document
Contact Info: Zachary Fasnacht (zachary.fasnacht@ssaihq.com); Nickolay Krotkov (nickolay.a.krotkov@nasa.gov); Lok Lamsal (lok.lamsal@nasa.gov)

FillValue: -999.
ScaleFactor: 1e15
Units: molecules/cm^2

Date(yyyy-mm-dd),City,Country,LonCenter,LatCenter,BoundingCoordinates,Median,Q1,Q3,Mean,Baseline_Median,Baseline_Q1,Baseline_Q3,Baseline_Mean,NumGoodSamples,NumTotalSamples
2015-01-01,Bangkok,Thailand,100.5001,13.7501,[100.0001 13.2501 101.0001 14.2501],4.405,2.693,6.44,4.647,4.04,2.535,6.701,4.835,191.0,518.0
2015-01-02,Bangkok,Thailand,100.5001,13.7501,[100.0001 13.2501 101.0001 14.2501],4.403,2.693,6.423,4.629,3.865,2.382,6.224,4.573,222.0,527.0
2015-01-03,Bangkok,Thailand,100.5001,13.7501,[100.0001 13.2501 101.0001 14.2501],4.394,2.636,6.037,4.334,3.726,2.287,5.831,4.4,199.0,528.0
2015-01-04,Bangkok,Thailand,100.5001,13.7501,[100.0001 13.2501 101.0001 14.2501],4.394,2.637,6.331,4.425,3.77,2.324,6.106,4.552,204.0,514.0
2015-01-05,Bangkok,Thailand,100.5001,13.7501,[100.0001 13.2501 101.0001 14.2501],4.403,2.637,6.368,4.479,3.695,2.281,6.353,4.754,194.0,535.0
2015-01-06,Bangkok,Thailand,100.5001,13.7501,[100.0001 13.2501 101.0001 14.2501],4.466,2.777,6.741,4.825,3.856,2.323,6.617,4.829,213.0,505.0
2015-01-07,Bangkok,Thailand,100.5001,13.7501,[100.0001 13.2501 101.0001 14.2501],4.509,2.821,6.887,5.025,3.901,2.339,6.282,5.033,184.0,528.0
2015-01-08,Bangkok,Thailand,100.5001,13.7501,[100.0001 13.2501 101.0001 14.2501],4.638,2.968,7.124,5.317,4.167,2.579,6.693,5.277,176.0,514.0
2015-01-09,Bangkok,Thailand,100.5001,13.7501,[100.0001 13.2501 101.0001 14.2501],5.021,3.144,8.028,6.206,4.539,2.835,7.691,5.832,195.0,540.0
2015-01-10,Bangkok,Thailand,100.5001,13.7501,[100.0001 13.2501 101.0001 14.2501],4.959,3.163,8.211,6.347,4.595,2.87,7.981,6.028,170.0,505.0
2015-01-11,Bangkok,Thailand,100.5001,13.7501,[100.0001 13.2501 101.0001 14.2501],5.278,3.258,8.533,6.668,4.588,2.819,7.637,5.929,196.0,503.0
2015-01-12,Bangkok,Thailand,100.5001,13.7501,[100.0001 13.2501 101.0001 14.2501],5.021,3.239,8.969,6.814,4.527,2.854,7.977,5.974,176.0,515.0
2015-01-13,Bangkok,Thailand,100.5001,13.7501,[100.0001 13.2501 101.0001 14.2501],5.329,3.507,9.301,7.05,4.567,2.876,7.803,5.946,196.0,487.0
2015-01-14,Bangkok,Thailand,100.5001,13.7501,[100.0001 13.2501 101.0001 14.2501],6.864,3.915,10.305,8.025,4.764,2.866,7.941,5.967,165.0,505.0
2015-01-15,Bangkok,Thailand,100.5001,13.7501,[100.0001 13.2501 101.0001 14.2501],6.116,4.052,9.889,7.518,4.857,3.106,8.071,6.111,196.0,487.0
2015-01-16,Bangkok,Thailand,100.5001,13.7501,[100.0001 13.2501 101.0001 14.2501],6.116,4.052,9.889,7.518,4.762,2.975,7.879,5.953,196.0,518.0
2015-01-17,Bangkok,Thailand,100.5001,13.7501,[100.0001 13.2501 101.0001 14.2501],6.116,4.2,9.301,7.491,4.969,3.176,8.197,6.157,185.0,499.0
2015-01-18,Bangkok,Thailand,100.5001,13.7501,[100.0001 13.2501 101.0001 14.2501],6.136,4.202,9.631,7.571,5.146,3.278,8.427,6.328,217.0,508.0
2015-01-19,Bangkok,Thailand,100.5001,13.7501,[100.0001 13.2501 101.0001 14.2501],6.116,4.202,9.631,7.566,5.085,3.211,8.184,6.191,212.0,510.0
2015-01-20,Bangkok,Thailand,100.5001,13.7501,[100.0001 13.2501 101.0001 14.2501],5.952,4.202,9.857,7.756,4.862,3.18,7.5,5.941,233.0,492.0
2015-01-21,Bangkok,Thailand,100.5001,13.7501,[100.0001 13.2501 101.0001 14.2501],5.727,4.188,9.857,7.814,4.678,3.115,7.413,5.898,214.0,510.0
2015-01-22,Bangkok,Thailand,100.5001,13.7501,[100.0001 13.2501 101.0001 14.2501],5.727,4.052,9.631,7.59,4.672,3.111,7.806,5.949,234.0,478.0
2015-01-23,Bangkok,Thailand,100.5001,13.7501,[100.0001 13.2501 101.0001 14.2501],5.923,4.188,9.865,7.824,4.497,3.032,7.54,5.839,207.0,500.0
2015-01-24,Bangkok,Thailand,100.5001,13.7501,[100.0001 13.2501 101.0001 14.2501],5.484,3.544,8.742,6.863,4.44,2.959,7.229,5.617,192.0,485.0
2015-01-25,Bangkok,Thailand,100.5001,13.7501,[100.0001 13.2501 101.0001 14.2501],5.232,3.427,8.316,6.637,4.469,3.013,7.109,5.57,226.0,531.0
2015-01-26,Bangkok,Thailand,100.5001,13.7501,[100.0001 13.2501 101.0001 14.2501],4.971,3.426,7.396,6.172,4.365,2.918,6.628,5.387,218.0,518.0
2015-01-27,Bangkok,Thailand,100.5001,13.7501,[100.0001 13.2501 101.0001 14.2501],5.002,3.414,7.381,6.122,4.264,2.832,6.422,5.223,243.0,520.0
2015-01-28,Bangkok,Thailand,100.5001,13.7501,[100.0001 13.2501 101.0001 14.2501],4.84,3.19,7.263,5.835,4.189,2.783,6.442,5.149,223.0,533.0
2015-01-29,Bangkok,Thailand,100.5001,13.7501,[100.0001 13.2501 101.0001 14.2501],4.764,3.112,7.163,5.672,4.167,2.754,6.329,5.047,243.0,504.0
2015-01-30,Bangkok,Thailand,100.5001,13.7501,[100.0001 13.2501 101.0001 14.2501],4.422,2.807,7.019,5.548,4.126,2.691,6.295,5.089,212.0,521.0
2015-01-31,Bangkok,Thailand,100.5001,13.7501,[100.0001 13.2501 101.0001 14.2501],4.322,2.483,6.735,5.184,4.201,2.623,6.398,5.113,243.0,504.0
2015-02-01,Bangkok,Thailand,100.5001,13.7501,[100.0001 13.2501 101.0001 14.2501],4.282,2.379,6.701,5.178,4.123,2.54,6.124,5.004,223.0,538.0
2015-02-02,Bangkok,Thailand,100.5001,13.7501,[100.0001 13.2501 101.0001 14.2501],3.938,2.352,5.74,4.716,3.982,2.456,5.861,4.791,210.0,519.0
2015-02-03,Bangkok,Thailand,100.5001,13.7501,[100.0001 13.2501 101.0001 14.2501],3.997,2.353,6.087,4.852,3.937,2.431,6.035,4.815,243.0,529.0
2015-02-04,Bangkok,Thailand,100.5001,13.7501,[100.0001 13.2501 101.0001 14.2501],3.805,2.218,5.74,4.391,3.917,2.372,6.096,4.729,222.0,535.0
2015-02-05,Bangkok,Thailand,100.5001,13.7501,[100.0001 13.2501 101.0001 14.2501],3.701,2.248,5.795,4.386,3.701,2.296,5.909,4.604,243.0,521.0
2015-02-06,Bangkok,Thailand,100.5001,13.7501,[100.0001 13.2501 101.0001 14.2501],3.544,2.218,5.485,4.202,3.654,2.317,5.875,4.473,223.0,540.0
2015-02-07,Bangkok,Thailand,100.5001,13.7501,[100.0001 13.2501 101.0001 14.2501],3.478,2.211,4.992,4.071,3.82,2.348,5.653,4.454,239.0,509.0
2015-02-08,Bangkok,Thailand,100.5001,13.7501,[100.0001 13.2501 101.0001 14.2501],3.614,2.217,5.259,4.167,3.729,2.292,5.756,4.389,217.0,531.0
2015-02-09,Bangkok,Thailand,100.5001,13.7501,[100.0001 13.2501 101.0001 14.2501],3.226,1.975,4.763,3.905,3.561,2.213,5.526,4.253,202.0,517.0
2015-02-10,Bangkok,Thailand,100.5001,13.7501,[100.0001 13.2501 101.0001 14.2501],3.079,1.917,4.787,3.866,3.685,2.285,5.57,4.344,214.0,542.0
2015-02-11,Bangkok,Thailand,100.5001,13.7501,[100.0001 13.2501 101.0001 14.2501],3.016,1.88,4.613,3.711,3.588,2.21,5.489,4.258,189.0,506.0
2015-02-12,Bangkok,Thailand,100.5001,13.7501,[100.0001 13.2501 101.0001 14.2501],3.012,1.811,4.613,3.667,3.518,2.176,5.367,4.157,205.0,505.0
2015-02-13,Bangkok,Thailand,100.5001,13.7501,[100.0001 13.2501 101.0001 14.2501],2.896,1.71,4.613,3.532,3.503,2.137,5.477,4.133,192.0,518.0
2015-02-14,Bangkok,Thailand,100.5001,13.7501,[100.0001 13.2501 101.0001 14.2501],2.865,1.652,4.572,3.458,3.39,2.04,5.179,3.922,208.0,490.0
2015-02-15,Bangkok,Thailand,100.5001,13.7501,[100.0001 13.2501 101.0001 14.2501],2.815,1.375,4.286,3.335,3.29,1.988,5.097,3.852,177.0,506.0
2015-02-16,Bangkok,Thailand,100.5001,13.7501,[100.0001 13.2501 101.0001 14.2501],2.352,1.334,4.037,2.957,3.161,1.922,5.026,3.747,207.0,485.0
2015-02-17,Bangkok,Thailand,100.5001,13.7501,[100.0001 13.2501 101.0001 14.2501],2.12,1.248,3.614,2.909,3.126,1.896,4.927,3.709,206.0,515.0
2015-02-18,Bangkok,Thailand,100.5001,13.7501,[100.0001 13.2501 101.0001 14.2501],2.07,1.158,3.48,2.622,3.042,1.824,4.806,3.599,193.0,495.0
2015-02-19,Bangkok,Thailand,100.5001,13.7501,[100.0001 13.2501 101.0001 14.2501],2.119,1.179,3.56,2.711,3.043,1.832,4.779,3.577,225.0,503.0
2015-02-20,Bangkok,Thailand,100.5001,13.7501,[100.0001 13.2501 101.0001 14.2501],2.07,1.158,3.56,2.687,3.06,1.914,4.74,3.619,224.0,508.0
2015-02-21,Bangkok,Thailand,100.5001,13.7501,[100.0001 13.2501 101.0001 14.2501],2.12,1.179,3.614,2.753,3.024,1.876,4.698,3.582,246.0,494.0
2015-02-22,Bangkok,Thailand,100.5001,13.7501,[100.0001 13.2501 101.0001 14.2501],2.107,1.179,3.597,2.786,2.98,1.863,4.726,3.585,247.0,513.0
2015-02-23,Bangkok,Thailand,100.5001,13.7501,[100.0001 13.2501 101.0001 14.2501],2.107,1.179,3.597,2.786,3.023,1.886,4.713,3.619,247.0,482.0
2015-02-24,Bangkok,Thailand,100.5001,13.7501,[100.0001 13.2501 101.0001 14.2501],2.226,1.248,3.907,2.949,3.077,1.919,4.783,3.693,228.0,502.0
2015-02-25,Bangkok,Thailand,100.5001,13.7501,[100.0001 13.2501 101.0001 14.2501],2.12,1.21,3.56,2.732,2.987,1.872,4.568,3.578,227.0,490.0
2015-02-26,Bangkok,Thailand,100.5001,13.7501,[100.0001 13.2501 101.0001 14.2501],2.315,1.248,3.606,2.843,3.103,1.915,4.695,3.659,261.0,537.0
2015-02-27,Bangkok,Thailand,100.5001,13.7501,[100.0001 13.2501 101.0001 14.2501],2.405,1.248,3.787,2.838,3.098,1.917,4.631,3.607,263.0,522.0
2015-02-28,Bangkok,Thailand,100.5001,13.7501,[100.0001 13.2501 101.0001 14.2501],2.451,1.315,3.72,2.891,3.019,1.915,4.454,3.522,283.0,522.0
2015-03-01,Bangkok,Thailand,100.5001,13.7501,[100.0001 13.2501 101.0001 14.2501],2.508,1.402,3.606,2.885,3.044,1.932,4.442,3.516,294.0,533.0
2015-03-02,Bangkok,Thailand,100.5001,13.7501,[100.0001 13.2501 101.0001 14.2501],2.486,1.384,3.573,2.822,3.012,1.914,4.348,3.455,314.0,505.0
2015-03-03,Bangkok,Thailand,100.5001,13.7501,[100.0001 13.2501 101.0001 14.2501],2.801,1.488,3.864,3.055,3.093,1.937,4.412,3.484,284.0,521.0
2015-03-04,Bangkok,Thailand,100.5001,13.7501,[100.0001 13.2501 101.0001 14.2501],2.508,1.384,3.597,2.884,3.049,1.912,4.333,3.463,293.0,504.0
2015-03-05,Bangkok,Thailand,100.5001,13.7501,[100.0001 13.2501 101.0001 14.2501],2.455,1.402,3.566,2.846,3.063,1.95,4.345,3.426,290.0,534.0
2015-03-06,Bangkok,Thailand,100.5001,13.7501,[100.0001 13.2501 101.0001 14.2501],2.472,1.402,3.523,2.755,3.055,1.918,4.351,3.419,276.0,514.0
2015-03-07,Bangkok,Thailand,100.5001,13.7501,[100.0001 13.2501 101.0001 14.2501],2.455,1.342,3.498,2.659,2.957,1.792,4.273,3.299,289.0,521.0
2015-03-08,Bangkok,Thailand,100.5001,13.7501,[100.0001 13.2501 101.0001 14.2501],2.426,1.315,3.498,2.602,2.87,1.724,4.113,3.18,286.0,526.0
2015-03-09,Bangkok,Thailand,100.5001,13.7501,[100.0001 13.2501 101.0001 14.2501],2.439,1.342,3.512,2.606,2.837,1.715,4.007,3.114,291.0,511.0
2015-03-10,Bangkok,Thailand,100.5001,13.7501,[100.0001 13.2501 101.0001 14.2501],2.439,1.342,3.523,2.631,2.812,1.672,3.983,3.056,307.0,531.0
2015-03-11,Bangkok,Thailand,100.5001,13.7501,[100.0001 13.2501 101.0001 14.2501],2.47,1.387,3.544,2.65,2.823,1.661,3.993,3.0,328.0,501.0
2015-03-12,Bangkok,Thailand,100.5001,13.7501,[100.0001 13.2501 101.0001 14.2501],2.485,1.445,3.566,2.721,2.737,1.64,3.945,2.976,299.0,520.0
2015-03-13,Bangkok,Thailand,100.5001,13.7501,[100.0001 13.2501 101.0001 14.2501],2.47,1.445,3.478,2.579,2.722,1.63,3.91,2.925,290.0,504.0
2015-03-14,Bangkok,Thailand,100.5001,13.7501,[100.0001 13.2501 101.0001 14.2501],2.47,1.428,3.461,2.586,2.731,1.603,3.92,2.932,298.0,531.0
2015-03-15,Bangkok,Thailand,100.5001,13.7501,[100.0001 13.2501 101.0001 14.2501],2.455,1.418,3.416,2.55,2.76,1.653,3.98,2.975,271.0,497.0
2015-03-16,Bangkok,Thailand,100.5001,13.7501,[100.0001 13.2501 101.0001 14.2501],2.483,1.445,3.464,2.588,2.775,1.655,4.025,2.976,261.0,500.0
2015-03-17,Bangkok,Thailand,100.5001,13.7501,[100.0001 13.2501 101.0001 14.2501],2.485,1.447,3.484,2.623,2.802,1.701,4.114,3.056,246.0,512.0
2015-03-18,Bangkok,Thailand,100.5001,13.7501,[100.0001 13.2501 101.0001 14.2501],2.47,1.461,3.478,2.613,2.818,1.724,4.122,3.07,252.0,485.0
2015-03-19,Bangkok,Thailand,100.5001,13.7501,[100.0001 13.2501 101.0001 14.2501],2.643,1.685,3.636,2.757,2.85,1.748,4.14,3.093,225.0,501.0
2015-03-20,Bangkok,Thailand,100.5001,13.7501,[100.0001 13.2501 101.0001 14.2501],2.608,1.726,3.551,2.728,2.817,1.7,4.2,3.104,218.0,485.0
2015-03-21,Bangkok,Thailand,100.5001,13.7501,[100.0001 13.2501 101.0001 14.2501],2.652,1.749,3.698,2.883,2.762,1.655,4.14,3.083,215.0,515.0
2015-03-22,Bangkok,Thailand,100.5001,13.7501,[100.0001 13.2501 101.0001 14.2501],2.578,1.807,3.551,2.818,2.815,1.791,4.154,3.117,200.0,496.0
2015-03-23,Bangkok,Thailand,100.5001,13.7501,[100.0001 13.2501 101.0001 14.2501],2.578,1.807,3.464,2.854,2.885,1.796,4.226,3.155,212.0,504.0
2015-03-24,Bangkok,Thailand,100.5001,13.7501,[100.0001 13.2501 101.0001 14.2501],2.578,1.809,3.617,2.93,2.852,1.778,4.279,3.154,209.0,511.0
2015-03-25,Bangkok,Thailand,100.5001,13.7501,[100.0001 13.2501 101.0001 14.2501],2.578,1.809,3.501,2.896,2.725,1.734,4.201,3.111,213.0,493.0
2015-03-26,Bangkok,Thailand,100.5001,13.7501,[100.0001 13.2501 101.0001 14.2501],2.579,1.781,3.501,2.971,2.722,1.704,4.144,3.09,205.0,516.0
2015-03-27,Bangkok,Thailand,100.5001,13.7501,[100.0001 13.2501 101.0001 14.2501],2.578,1.653,3.773,2.952,2.827,1.73,4.2,3.084,225.0,486.0
2015-03-28,Bangkok,Thailand,100.5001,13.7501,[100.0001 13.2501 101.0001 14.2501],2.643,1.688,3.978,3.08,2.629,1.618,4.117,3.016,200.0,508.0
2015-03-29,Bangkok,Thailand,100.5001,13.7501,[100.0001 13.2501 101.0001 14.2501],2.457,1.503,3.773,2.899,2.559,1.538,4.081,2.946,197.0,491.0
2015-03-30,Bangkok,Thailand,100.5001,13.7501,[100.0001 13.2501 101.0001 14.2501],2.481,1.503,3.847,2.931,2.546,1.481,4.055,2.935,232.0,537.0
2015-03-31,Bangkok,Thailand,100.5001,13.7501,[100.0001 13.2501 101.0001 14.2501],2.494,1.503,3.773,2.925,2.419,1.329,3.934,2.839,233.0,525.0
2015-04-01,Bangkok,Thailand,100.5001,13.7501,[100.0001 13.2501 101.0001 14.2501],2.494,1.507,3.773,2.94,2.31,1.326,3.713,2.725,228.0,526.0
2015-04-02,Bangkok,Thailand,100.5001,13.7501,[100.0001 13.2501 101.0001 14.2501],2.622,1.583,3.98,3.112,2.305,1.323,3.757,2.783,248.0,537.0
2015-04-03,Bangkok,Thailand,100.5001,13.7501,[100.0001 13.2501 101.0001 14.2501],2.505,1.503,3.815,3.005,2.209,1.271,3.629,2.686,266.0,510.0
2015-04-04,Bangkok,Thailand,100.5001,13.7501,[100.0001 13.2501 101.0001 14.2501],2.532,1.451,3.978,3.055,2.194,1.248,3.635,2.65,256.0,528.0
2015-04-05,Bangkok,Thailand,100.5001,13.7501,[100.0001 13.2501 101.0001 14.2501],2.352,1.268,3.763,2.797,2.148,1.212,3.573,2.582,249.0,512.0
2015-04-06,Bangkok,Thailand,100.5001,13.7501,[100.0001 13.2501 101.0001 14.2501],2.347,1.211,3.859,2.852,2.072,1.203,3.477,2.539,243.0,542.0
2015-04-07,Bangkok,Thailand,100.5001,13.7501,[100.0001 13.2501 101.0001 14.2501],2.509,1.291,3.573,2.822,2.045,1.212,3.35,2.482,232.0,522.0
2015-04-08,Bangkok,Thailand,100.5001,13.7501,[100.0001 13.2501 101.0001 14.2501],2.536,1.356,3.573,2.788,1.989,1.163,3.193,2.386,243.0,529.0
2015-04-09,Bangkok,Thailand,100.5001,13.7501,[100.0001 13.2501 101.0001 14.2501],2.536,1.331,3.745,2.822,1.946,1.143,3.159,2.353,242.0,539.0
2015-04-10,Bangkok,Thailand,100.5001,13.7501,[100.0001 13.2501 101.0001 14.2501],2.532,1.356,3.675,2.818,1.935,1.134,3.13,2.335,249.0,519.0
2015-04-11,Bangkok,Thailand,100.5001,13.7501,[100.0001 13.2501 101.0001 14.2501],2.532,1.451,3.573,2.81,1.944,1.161,3.091,2.325,244.0,542.0
2015-04-12,Bangkok,Thailand,100.5001,13.7501,[100.0001 13.2501 101.0001 14.2501],2.479,1.514,3.555,2.759,1.996,1.222,3.159,2.347,263.0,512.0
2015-04-13,Bangkok,Thailand,100.5001,13.7501,[100.0001 13.2501 101.0001 14.2501],2.641,1.574,3.586,2.871,2.009,1.252,3.144,2.374,240.0,535.0
2015-04-14,Bangkok,Thailand,100.5001,13.7501,[100.0001 13.2501 101.0001 14.2501],2.634,1.709,3.57,2.831,2.02,1.256,3.132,2.377,232.0,522.0
2015-04-15,Bangkok,Thailand,100.5001,13.7501,[100.0001 13.2501 101.0001 14.2501],2.584,1.669,3.586,2.91,2.068,1.27,3.186,2.436,247.0,544.0
2015-04-16,Bangkok,Thailand,100.5001,13.7501,[100.0001 13.2501 101.0001 14.2501],2.584,1.669,3.586,2.91,2.018,1.253,3.145,2.434,247.0,509.0
2015-04-17,Bangkok,Thailand,100.5001,13.7501,[100.0001 13.2501 101.0001 14.2501],2.641,1.705,3.573,2.875,2.022,1.256,3.046,2.388,242.0,511.0
2015-04-18,Bangkok,Thailand,100.5001,13.7501,[100.0001 13.2501 101.0001 14.2501],2.711,1.75,3.713,2.971,2.057,1.291,3.076,2.421,226.0,524.0
2015-04-19,Bangkok,Thailand,100.5001,13.7501,[100.0001 13.2501 101.0001 14.2501],2.688,1.844,3.713,2.957,2.069,1.326,3.061,2.433,243.0,493.0
2015-04-20,Bangkok,Thailand,100.5001,13.7501,[100.0001 13.2501 101.0001 14.2501],2.88,2.002,3.837,3.149,2.144,1.366,3.083,2.483,235.0,508.0
2015-04-21,Bangkok,Thailand,100.5001,13.7501,[100.0001 13.2501 101.0001 14.2501],2.688,1.845,3.698,2.952,2.192,1.374,3.165,2.524,237.0,490.0
2015-04-22,Bangkok,Thailand,100.5001,13.7501,[100.0001 13.2501 101.0001 14.2501],2.54,1.717,3.745,2.938,2.203,1.355,3.207,2.542,228.0,523.0
2015-04-23,Bangkok,Thailand,100.5001,13.7501,[100.0001 13.2501 101.0001 14.2501],2.411,1.527,3.713,2.827,2.238,1.397,3.3,2.597,206.0,503.0
2015-04-24,Bangkok,Thailand,100.5001,13.7501,[100.0001 13.2501 101.0001 14.2501],2.307,1.45,3.549,2.744,2.206,1.395,3.263,2.582,216.0,508.0
2015-04-25,Bangkok,Thailand,100.5001,13.7501,[100.0001 13.2501 101.0001 14.2501],2.269,1.394,3.412,2.641,2.186,1.393,3.238,2.557,208.0,513.0
2015-04-26,Bangkok,Thailand,100.5001,13.7501,[100.0001 13.2501 101.0001 14.2501],2.257,1.394,3.396,2.598,2.044,1.303,3.105,2.472,206.0,498.0
2015-04-27,Bangkok,Thailand,100.5001,13.7501,[100.0001 13.2501 101.0001 14.2501],2.283,1.347,3.412,2.641,2.04,1.288,3.08,2.457,193.0,518.0
2015-04-28,Bangkok,Thailand,100.5001,13.7501,[100.0001 13.2501 101.0001 14.2501],2.307,1.347,3.402,2.624,2.028,1.231,3.09,2.427,197.0,488.0
2015-04-29,Bangkok,Thailand,100.5001,13.7501,[100.0001 13.2501 101.0001 14.2501],1.961,1.142,3.402,2.576,1.94,1.178,3.069,2.36,170.0,508.0
2015-04-30,Bangkok,Thailand,100.5001,13.7501,[100.0001 13.2501 101.0001 14.2501],1.526,1.004,2.68,2.032,1.844,1.135,2.87,2.246,156.0,494.0
2015-05-01,Bangkok,Thailand,100.5001,13.7501,[100.0001 13.2501 101.0001 14.2501],1.601,1.004,2.714,2.051,1.808,1.144,2.886,2.217,176.0,541.0
2015-05-02,Bangkok,Thailand,100.5001,13.7501,[100.0001 13.2501 101.0001 14.2501],1.473,1.004,2.353,1.792,1.759,1.118,2.737,2.106,165.0,528.0
2015-05-03,Bangkok,Thailand,100.5001,13.7501,[100.0001 13.2501 101.0001 14.2501],1.546,1.023,2.496,1.883,1.724,1.069,2.717,2.074,184.0,526.0
2015-05-04,Bangkok,Thailand,100.5001,13.7501,[100.0001 13.2501 101.0001 14.2501],1.519,1.023,2.357,1.868,1.665,1.011,2.618,2.014,197.0,542.0
2015-05-05,Bangkok,Thailand,100.5001,13.7501,[100.0001 13.2501 101.0001 14.2501],1.593,1.023,2.496,1.888,1.599,0.996,2.587,1.951,214.0,515.0
2015-05-06,Bangkok,Thailand,100.5001,13.7501,[100.0001 13.2501 101.0001 14.2501],1.676,1.085,2.565,1.991,1.58,0.994,2.565,1.921,200.0,534.0
2015-05-07,Bangkok,Thailand,100.5001,13.7501,[100.0001 13.2501 101.0001 14.2501],1.656,1.047,2.565,1.983,1.559,0.982,2.521,1.917,192.0,515.0
2015-05-08,Bangkok,Thailand,100.5001,13.7501,[100.0001 13.2501 101.0001 14.2501],1.698,1.095,2.565,2.0,1.562,0.99,2.495,1.891,199.0,546.0
2015-05-09,Bangkok,Thailand,100.5001,13.7501,[100.0001 13.2501 101.0001 14.2501],1.746,1.109,2.574,1.996,1.565,0.995,2.558,1.94,184.0,529.0
2015-05-10,Bangkok,Thailand,100.5001,13.7501,[100.0001 13.2501 101.0001 14.2501],1.746,1.047,2.608,1.987,1.548,0.978,2.571,1.936,201.0,539.0
2015-05-11,Bangkok,Thailand,100.5001,13.7501,[100.0001 13.2501 101.0001 14.2501],1.779,1.047,2.718,2.039,1.642,1.023,2.629,1.987,206.0,539.0
2015-05-12,Bangkok,Thailand,100.5001,13.7501,[100.0001 13.2501 101.0001 14.2501],1.818,1.109,2.731,2.13,1.648,1.042,2.624,2.015,223.0,526.0
2015-05-13,Bangkok,Thailand,100.5001,13.7501,[100.0001 13.2501 101.0001 14.2501],1.763,1.109,2.718,2.108,1.617,1.037,2.679,2.011,231.0,544.0
2015-05-14,Bangkok,Thailand,100.5001,13.7501,[100.0001 13.2501 101.0001 14.2501],1.763,1.047,2.72,2.136,1.633,1.036,2.637,2.0,240.0,514.0
2015-05-15,Bangkok,Thailand,100.5001,13.7501,[100.0001 13.2501 101.0001 14.2501],2.083,1.278,3.114,2.349,1.717,1.095,2.749,2.051,221.0,537.0
2015-05-16,Bangkok,Thailand,100.5001,13.7501,[100.0001 13.2501 101.0001 14.2501],1.992,1.269,2.986,2.337,1.691,1.092,2.708,2.058,203.0,523.0
2015-05-17,Bangkok,Thailand,100.5001,13.7501,[100.0001 13.2501 101.0001 14.2501],1.992,1.192,2.986,2.304,1.711,1.08,2.755,2.082,225.0,546.0
2015-05-18,Bangkok,Thailand,100.5001,13.7501,[100.0001 13.2501 101.0001 14.2501],1.868,1.149,2.888,2.262,1.705,1.059,2.743,2.064,204.0,513.0
2015-05-19,Bangkok,Thailand,100.5001,13.7501,[100.0001 13.2501 101.0001 14.2501],1.779,1.125,2.731,2.18,1.635,1.025,2.6,2.0,201.0,508.0
2015-05-20,Bangkok,Thailand,100.5001,13.7501,[100.0001 13.2501 101.0001 14.2501],1.732,1.084,2.797,2.178,1.63,1.014,2.637,2.005,206.0,521.0
2015-05-21,Bangkok,Thailand,100.5001,13.7501,[100.0001 13.2501 101.0001 14.2501],1.726,1.098,2.731,2.149,1.599,1.017,2.605,1.987,226.0,492.0
2015-05-22,Bangkok,Thailand,100.5001,13.7501,[100.0001 13.2501 101.0001 14.2501],1.732,1.132,2.797,2.179,1.587,1.013,2.591,1.968,223.0,508.0
2015-05-23,Bangkok,Thailand,100.5001,13.7501,[100.0001 13.2501 101.0001 14.2501],1.475,0.769,2.447,1.881,1.536,0.88,2.506,1.891,238.0,491.0
2015-05-24,Bangkok,Thailand,100.5001,13.7501,[100.0001 13.2501 101.0001 14.2501],1.397,0.71,2.312,1.824,1.498,0.869,2.453,1.856,240.0,522.0
2015-05-25,Bangkok,Thailand,100.5001,13.7501,[100.0001 13.2501 101.0001 14.2501],1.363,0.661,2.312,1.777,1.487,0.835,2.568,1.882,230.0,502.0
2015-05-26,Bangkok,Thailand,100.5001,13.7501,[100.0001 13.2501 101.0001 14.2501],1.363,0.661,2.312,1.8,1.451,0.78,2.565,1.886,237.0,511.0
2015-05-27,Bangkok,Thailand,100.5001,13.7501,[100.0001 13.2501 101.0001 14.2501],1.277,0.636,2.216,1.67,1.449,0.798,2.548,1.837,214.0,511.0
2015-05-28,Bangkok,Thailand,100.5001,13.7501,[100.0001 13.2501 101.0001 14.2501],1.294,0.636,2.282,1.732,1.39,0.713,2.468,1.806,224.0,500.0
2015-05-29,Bangkok,Thailand,100.5001,13.7501,[100.0001 13.2501 101.0001 14.2501],1.319,0.636,2.282,1.728,1.38,0.707,2.456,1.796,224.0,519.0
2015-05-30,Bangkok,Thailand,100.5001,13.7501,[100.0001 13.2501 101.0001 14.2501],1.371,0.636,2.488,1.766,1.396,0.714,2.533,1.802,243.0,486.0
2015-05-31,Bangkok,Thailand,100.5001,13.7501,[100.0001 13.2501 101.0001 14.2501],1.371,0.636,2.495,1.769,1.344,0.698,2.49,1.78,241.0,506.0
2015-06-01,Bangkok,Thailand,100.5001,13.7501,[100.0001 13.2501 101.0001 14.2501],1.348,0.612,2.495,1.735,1.349,0.694,2.4,1.758,211.0,492.0
2015-06-02,Bangkok,Thailand,100.5001,13.7501,[100.0001 13.2501 101.0001 14.2501],1.363,0.619,2.619,1.786,1.36,0.693,2.529,1.787,246.0,537.0
2015-06-03,Bangkok,Thailand,100.5001,13.7501,[100.0001 13.2501 101.0001 14.2501],1.363,0.612,2.65,1.81,1.378,0.67,2.578,1.818,237.0,524.0
2015-06-04,Bangkok,Thailand,100.5001,13.7501,[100.0001 13.2501 101.0001 14.2501],1.363,0.612,2.729,1.861,1.359,0.654,2.597,1.812,240.0,523.0
2015-06-05,Bangkok,Thailand,100.5001,13.7501,[100.0001 13.2501 101.0001 14.2501],1.329,0.568,2.786,1.866,1.338,0.596,2.598,1.801,230.0,537.0
2015-06-06,Bangkok,Thailand,100.5001,13.7501,[100.0001 13.2501 101.0001 14.2501],1.363,0.59,2.786,1.887,1.367,0.622,2.567,1.797,237.0,509.0
2015-06-07,Bangkok,Thailand,100.5001,13.7501,[100.0001 13.2501 101.0001 14.2501],1.681,0.66,3.161,2.189,1.493,0.629,2.748,1.906,207.0,524.0
2015-06-08,Bangkok,Thailand,100.5001,13.7501,[100.0001 13.2501 101.0001 14.2501],1.712,0.66,3.245,2.227,1.478,0.637,2.733,1.903,191.0,504.0
2015-06-09,Bangkok,Thailand,100.5001,13.7501,[100.0001 13.2501 101.0001 14.2501],1.811,0.833,3.335,2.318,1.5,0.691,2.652,1.897,185.0,536.0
2015-06-10,Bangkok,Thailand,100.5001,13.7501,[100.0001 13.2501 101.0001 14.2501],1.666,0.661,3.161,2.176,1.498,0.66,2.715,1.906,166.0,518.0
2015-06-11,Bangkok,Thailand,100.5001,13.7501,[100.0001 13.2501 101.0001 14.2501],1.658,0.661,3.161,2.164,1.508,0.656,2.68,1.896,169.0,527.0
2015-06-12,Bangkok,Thailand,100.5001,13.7501,[100.0001 13.2501 101.0001 14.2501],1.595,0.634,3.116,2.108,1.485,0.648,2.641,1.874,166.0,529.0
2015-06-13,Bangkok,Thailand,100.5001,13.7501,[100.0001 13.2501 101.0001 14.2501],1.595,0.634,3.116,2.081,1.491,0.638,2.681,1.874,179.0,514.0
2015-06-14,Bangkok,Thailand,100.5001,13.7501,[100.0001 13.2501 101.0001 14.2501],1.57,0.651,3.058,2.128,1.474,0.654,2.622,1.865,176.0,535.0
2015-06-15,Bangkok,Thailand,100.5001,13.7501,[100.0001 13.2501 101.0001 14.2501],1.595,0.653,3.116,2.153,1.49,0.667,2.67,1.906,180.0,504.0
2015-06-16,Bangkok,Thailand,100.5001,13.7501,[100.0001 13.2501 101.0001 14.2501],1.718,0.745,3.116,2.231,1.404,0.642,2.493,1.874,178.0,526.0
2015-06-17,Bangkok,Thailand,100.5001,13.7501,[100.0001 13.2501 101.0001 14.2501],1.712,0.687,3.116,2.198,1.413,0.629,2.616,1.886,143.0,512.0